Location: Athabasca
(54.7194°N, 113.2858°W)
Time: 09:53:15
(UTC+00:00)

PRISM - Pass Details

Date: 04 December 2023
Orbit: 515 x 532 km, 98.2° (Epoch: 04 March)

Event Time Altitude Azimuth Distance (km) Brightness Sun altitude
Exits shadow 01:45:03 18° 2° (N) 1,388 ? -21.1°
Drops below altitude 10° 01:46:11 10° 355° (N) 1,822 ? -21.2°
Sets 01:48:21 0° 349° (N) 2,714 ? -21.5°
